Location: Ammerl�gen
(47.2167°N, 9.6000°E)
Time: 16:45:39
(UTC+00:00)

NOAA 19 - Pass Details

Date: 03 December 2021
Orbit: 841 x 860 km, 99.2° (Epoch: 17 January)

Event Time Altitude Azimuth Distance (km) Brightness Sun altitude
Rises 17:04:43 0° 139° (SE) 3,387 8.1 -15.0°
Reaches altitude 10° 17:07:12 10° 131° (SE) 2,457 7.3 -15.4°
Maximum altitude 17:12:11 38° 65° (ENE) 1,261 5.6 -16.2°
Drops below altitude 10° 17:17:13 10° 359° (N) 2,478 7.5 -17.0°
Sets 17:19:43 0° 351° (N) 3,420 8.3 -17.4°
